Weather Roundup
Issued by NWS Chicago, IL

Home | Current Version | Previous Version | Text Only | Print | Product List | Glossary On
Versions: 1 2 3 4 5 6 7 8 9 10 11 12 13 14 15 16 17 18 19 20 21 22 23 24 25 26 27 28 29 30 31 32 33 34 35 36 37 38 39 40 41 42 43 44 45 46 47 48 49 50
000
NZUS59 KLOT 250821
HRRLOT

CHICAGO AREA WEATHER ROUNDUP
NATIONAL WEATHER SERVICE CHICAGO/ROMEOVILLE IL
300 AM CDT SAT APR 25 2015

NOTE: "FAIR" INDICATES FEW OR NO CLOUDS BELOW 12,000 FEET WITH NO
SIGNIFICANT WEATHER AND/OR OBSTRUCTIONS TO VISIBILITY.

* THESE STATIONS ARE NOT UNDER NWS QUALITY CONTROL. THEY ALSO MAY NOT
  REPORT WEATHER SUCH AS PRECIPITATION OR FOG.

ILZ005-006-012>014-019>023-250900-
NORTHEAST ILLINOIS

CITY           SKY/WX    TMP DP  RH WIND       PRES   REMARKS
OHARE          CLOUDY    43  38  82 E15       29.83F
MIDWAY         CLOUDY    46  40  79 E15       29.82F
AURORA         CLOUDY    43  37  79 NE14      29.81S
LANSING*       MOCLDY    44  38  82 E10G17    29.81F
JOLIET*        MOCLDY    45  41  86 NE10      29.81R
WAUKEGAN       CLOUDY    39  37  92 E13       29.86F
DUPAGE AIRPORT CLOUDY    43  38  82 E15       29.82R
WHEELING       CLOUDY    42  37  82 E12       29.86F
KANKAKEE*      CLOUDY    51  35  54 E15       29.77S
MORRIS*        CLOUDY    43  40  88 NE6       29.76S
LEWIS AIRPORT* MOCLDY    43  39  86 E15       29.81R
NORTHERLY IS     N/A     43  39  86 NE15        N/A
$$

WIZ051-052-058>065-066-070>072-250900-
SOUTHEAST WISCONSIN

CITY           SKY/WX    TMP DP  RH WIND       PRES   REMARKS
MILWAUKEE      CLOUDY    39  33  79 E12       29.89F
KENOSHA*       CLOUDY    40  36  86 E16       29.87F
RACINE*        CLOUDY    40  35  83 E16G24    29.88F
BURLINGTON     CLOUDY    38  33  82 E8        29.87F
WAUKESHA       CLOUDY    36  32  87 E9        29.89F
WEST BEND      CLOUDY    37  32  81 E8        29.88F
$$

INZ001>003-010>013-019-020-250900-
NORTHWEST INDIANA

CITY           SKY/WX    TMP DP  RH WIND       PRES   REMARKS
GARY*          CLOUDY    46  38  73 E15G21    29.82F
MICHIGAN CITY* NOT AVBL
RENSSELAER*    NOT AVBL
VALPARAISO     CLOUDY    43  39  86 E16       29.83F
$$

LMZ740>746-250900-
SOUTHERN LAKE MICHIGAN

STATION/POSITION TIME  SKY/WX   TEMP WIND        PRES    VSBY
                                AIR  DIR/SP/G
                 (UTC)          (F)  (DEG/KT/KT) (MB)    (MI)
HARRISON CRIB    0800            41   70/ 21/ 23   N/A
BURNHAM HARBOR   0800            43   70/ 14/ 18   N/A
CALUMET HARBOR   0700            44   50/ 14/ 18   N/A
BURNS HARBOR     0800            46   90/ 15/ 20 1010.5F
MICHIGAN CITY    0800            44   60/ 16/ 19   N/A
$$

ABBREVIATIONS USED IN REMARKS
   TC - TEMPERATURE IN CELSIUS
  WCI - WIND CHILL INDEX
   HX - HEAT INDEX
  VSB - VISIBILITY
$$



USA.gov is the U.S. government's official web portal to all federal, state and local government web resources and services.